Time,TemperatureF,DewpointF,PressureIn,WindDirection,WindDirectionDegrees,WindSpeedMPH,WindSpeedGustMPH,Humidity,HourlyPrecipIn,Conditions,Clouds,dailyrainin,SolarRadiationWatts/m^2,SoftwareType,DateUTC
2013-07-23 00:03:00,63.2,58.0,29.79,WNW,298,2.0,2.0,83,0.00,,SKC,0.00,0.00,VWS V14.00,2013-07-23 05:03:00,
2013-07-23 00:08:00,63.1,57.9,29.80,WNW,300,0.0,4.0,83,0.00,,SKC,0.00,0.00,VWS V14.00,2013-07-23 05:08:00,
2013-07-23 00:13:00,63.1,57.9,29.80,North,5,1.0,6.0,83,0.00,,SKC,0.00,0.00,VWS V14.00,2013-07-23 05:13:00,
2013-07-23 00:18:00,63.0,58.1,29.80,WNW,302,1.0,3.0,84,0.00,,SKC,0.00,0.00,VWS V14.00,2013-07-23 05:18:00,
2013-07-23 00:23:00,63.0,57.8,29.80,NNE,16,0.0,5.0,83,0.00,,SKC,0.00,0.00,VWS V14.00,2013-07-23 05:23:00,
2013-07-23 00:28:00,62.9,57.7,29.80,NE,55,2.0,6.0,83,0.00,,SKC,0.00,0.00,VWS V14.00,2013-07-23 05:28:00,
2013-07-23 00:33:00,62.9,57.7,29.80,South,180,0.0,5.0,83,0.00,,SKC,0.00,0.00,VWS V14.00,2013-07-23 05:33:00,
2013-07-23 00:38:00,62.9,57.3,29.79,SE,124,0.0,3.0,82,0.00,,SKC,0.00,0.00,VWS V14.00,2013-07-23 05:38:00,
2013-07-23 00:43:00,62.9,57.3,29.80,NNW,335,0.0,3.0,82,0.00,,SKC,0.00,0.00,VWS V14.00,2013-07-23 05:43:00,
2013-07-23 00:48:00,62.9,57.3,29.80,North,349,1.0,2.0,82,0.00,,SKC,0.00,0.00,VWS V14.00,2013-07-23 05:48:00,
2013-07-23 00:53:00,62.9,57.7,29.81,WNW,301,0.0,3.0,83,0.00,,SKC,0.00,0.00,VWS V14.00,2013-07-23 05:53:00,
2013-07-23 00:58:00,62.7,57.5,29.80,NNW,342,0.0,2.0,83,0.00,,SKC,0.00,0.00,VWS V14.00,2013-07-23 05:58:00,
2013-07-23 01:03:00,62.7,57.5,29.80,NW,325,0.0,4.0,83,0.00,,SKC,0.00,0.00,VWS V14.00,2013-07-23 06:03:00,
2013-07-23 01:08:00,62.5,57.3,29.80,NW,308,1.0,4.0,83,0.00,,SKC,0.00,0.00,VWS V14.00,2013-07-23 06:08:00,
2013-07-23 01:13:00,62.4,57.2,29.81,NW,319,0.0,3.0,83,0.00,,SKC,0.00,0.00,VWS V14.00,2013-07-23 06:13:00,
2013-07-23 01:18:00,62.3,57.1,29.81,WNW,299,0.0,4.0,83,0.00,,SKC,0.00,0.00,VWS V14.00,2013-07-23 06:18:00,
2013-07-23 01:23:00,62.1,57.2,29.81,WNW,299,1.0,1.0,84,0.00,,SKC,0.00,0.00,VWS V14.00,2013-07-23 06:23:00,
2013-07-23 01:28:00,61.9,57.0,29.81,NNW,329,0.0,3.0,84,0.00,,SKC,0.00,0.00,VWS V14.00,2013-07-23 06:28:00,
2013-07-23 01:33:00,61.7,56.8,29.81,North,350,0.0,3.0,84,0.00,,SKC,0.00,0.00,VWS V14.00,2013-07-23 06:33:00,
2013-07-23 01:38:00,61.5,56.6,29.81,ESE,123,0.0,3.0,84,0.00,,SKC,0.00,0.00,VWS V14.00,2013-07-23 06:38:00,
2013-07-23 01:43:00,61.4,56.9,29.81,NE,54,0.0,4.0,85,0.00,,SKC,0.00,0.00,VWS V14.00,2013-07-23 06:43:00,
2013-07-23 01:48:00,61.3,56.8,29.81,East,96,0.0,0.0,85,0.00,,SKC,0.00,0.00,VWS V14.00,2013-07-23 06:48:00,
2013-07-23 01:53:00,61.2,56.7,29.81,SSW,213,0.0,0.0,85,0.00,,SKC,0.00,0.00,VWS V14.00,2013-07-23 06:53:00,
2013-07-23 01:58:00,61.2,57.0,29.81,WNW,288,1.0,1.0,86,0.00,,SKC,0.00,0.00,VWS V14.00,2013-07-23 06:58:00,
2013-07-23 02:03:00,61.1,56.9,29.81,South,176,0.0,0.0,86,0.00,,SKC,0.00,0.00,VWS V14.00,2013-07-23 07:03:00,
2013-07-23 02:08:00,61.1,56.9,29.81,SSW,198,0.0,1.0,86,0.00,,SKC,0.00,0.00,VWS V14.00,2013-07-23 07:08:00,
2013-07-23 02:13:00,61.0,56.8,29.81,SW,221,2.0,2.0,86,0.00,,SKC,0.00,0.00,VWS V14.00,2013-07-23 07:13:00,
2013-07-23 02:18:00,60.9,56.7,29.81,SW,221,1.0,1.0,86,0.00,,SKC,0.00,0.00,VWS V14.00,2013-07-23 07:18:00,
2013-07-23 02:23:00,60.8,56.6,29.82,West,262,0.0,0.0,86,0.00,,SKC,0.00,0.00,VWS V14.00,2013-07-23 07:23:00,
2013-07-23 02:28:00,60.7,56.8,29.82,SSE,148,0.0,0.0,87,0.00,,SKC,0.00,0.00,VWS V14.00,2013-07-23 07:28:00,
2013-07-23 02:33:00,60.6,56.7,29.82,WNW,300,1.0,1.0,87,0.00,,SKC,0.00,0.00,VWS V14.00,2013-07-23 07:33:00,
2013-07-23 02:39:00,60.5,56.6,29.82,NW,308,2.0,2.0,87,0.00,,SKC,0.00,0.00,VWS V14.00,2013-07-23 07:39:00,
2013-07-23 02:44:00,60.4,56.5,29.82,NNW,333,0.0,0.0,87,0.00,,SKC,0.00,0.00,VWS V14.00,2013-07-23 07:44:00,
2013-07-23 02:49:00,60.3,56.4,29.82,SE,124,0.0,3.0,87,0.00,,SKC,0.00,0.00,VWS V14.00,2013-07-23 07:49:00,
2013-07-23 02:54:00,60.2,56.3,29.82,WSW,254,1.0,1.0,87,0.00,,SKC,0.00,0.00,VWS V14.00,2013-07-23 07:54:00,
2013-07-23 02:59:00,60.1,56.5,29.81,WNW,288,0.0,1.0,88,0.00,,SKC,0.00,0.00,VWS V14.00,2013-07-23 07:59:00,
2013-07-23 03:04:00,59.9,56.3,29.81,WSW,247,0.0,2.0,88,0.00,,SKC,0.00,0.00,VWS V14.00,2013-07-23 08:04:00,
2013-07-23 03:09:00,59.8,56.2,29.81,East,101,1.0,1.0,88,0.00,,SKC,0.00,0.00,VWS V14.00,2013-07-23 08:09:00,
2013-07-23 03:14:00,59.7,56.5,29.82,SE,143,0.0,1.0,89,0.00,,SKC,0.00,0.00,VWS V14.00,2013-07-23 08:14:00,
2013-07-23 03:19:00,59.6,56.4,29.82,NNW,339,0.0,1.0,89,0.00,,SKC,0.00,0.00,VWS V14.00,2013-07-23 08:19:00,
2013-07-23 03:24:00,59.6,56.4,29.82,ENE,72,1.0,2.0,89,0.00,,SKC,0.00,0.00,VWS V14.00,2013-07-23 08:24:00,
2013-07-23 03:29:00,59.5,56.3,29.82,West,273,0.0,0.0,89,0.00,,SKC,0.00,0.00,VWS V14.00,2013-07-23 08:29:00,
2013-07-23 03:34:00,59.5,56.3,29.82,NNW,328,0.0,0.0,89,0.00,,SKC,0.00,0.00,VWS V14.00,2013-07-23 08:34:00,
2013-07-23 03:39:00,59.4,56.2,29.83,NNW,344,0.0,1.0,89,0.00,,SKC,0.00,0.00,VWS V14.00,2013-07-23 08:39:00,
2013-07-23 03:44:00,59.3,56.1,29.82,ESE,111,2.0,2.0,89,0.00,,SKC,0.00,0.00,VWS V14.00,2013-07-23 08:44:00,
2013-07-23 03:49:00,59.2,56.0,29.83,South,179,0.0,1.0,89,0.00,,SKC,0.00,0.00,VWS V14.00,2013-07-23 08:49:00,
2013-07-23 03:54:00,59.1,55.9,29.83,ESE,109,0.0,1.0,89,0.00,,SKC,0.00,0.00,VWS V14.00,2013-07-23 08:54:00,
2013-07-23 03:59:00,59.0,55.8,29.82,ESE,111,0.0,1.0,89,0.00,,SKC,0.00,0.00,VWS V14.00,2013-07-23 08:59:00,
2013-07-23 04:04:00,59.0,56.7,29.82,ESE,113,0.0,1.0,92,0.00,,SKC,0.00,0.00,VWS V14.00,2013-07-23 09:04:00,
2013-07-23 04:09:00,58.9,56.0,29.82,East,100,0.0,1.0,90,0.00,,SKC,0.00,0.00,VWS V14.00,2013-07-23 09:09:00,
2013-07-23 04:14:00,58.9,56.0,29.82,ESE,103,0.0,2.0,90,0.00,,SKC,0.00,0.00,VWS V14.00,2013-07-23 09:14:00,
2013-07-23 04:19:00,58.8,55.9,29.82,NNW,348,0.0,1.0,90,0.00,,SKC,0.00,0.00,VWS V14.00,2013-07-23 09:19:00,
2013-07-23 04:24:00,58.7,56.1,29.82,WSW,246,2.0,2.0,91,0.00,,SKC,0.00,0.00,VWS V14.00,2013-07-23 09:24:00,
2013-07-23 04:29:00,58.7,56.1,29.83,NNW,329,1.0,1.0,91,0.00,,SKC,0.00,0.00,VWS V14.00,2013-07-23 09:29:00,
2013-07-23 04:34:00,58.7,56.1,29.83,NNE,31,1.0,1.0,91,0.00,,SKC,0.00,0.00,VWS V14.00,2013-07-23 09:34:00,
2013-07-23 04:39:00,58.7,56.1,29.83,WNW,296,0.0,2.0,91,0.00,,SKC,0.00,0.00,VWS V14.00,2013-07-23 09:39:00,
2013-07-23 04:44:00,58.7,56.1,29.83,West,276,0.0,0.0,91,0.00,,SKC,0.00,0.00,VWS V14.00,2013-07-23 09:44:00,
2013-07-23 04:49:00,58.7,56.1,29.83,NNW,328,0.0,2.0,91,0.00,,SKC,0.00,0.00,VWS V14.00,2013-07-23 09:49:00,
2013-07-23 04:54:00,58.6,56.0,29.84,NW,321,1.0,3.0,91,0.00,,SKC,0.00,0.00,VWS V14.00,2013-07-23 09:54:00,
2013-07-23 04:59:00,58.4,55.8,29.83,NW,321,1.0,1.0,91,0.00,,SKC,0.00,0.00,VWS V14.00,2013-07-23 09:59:00,
2013-07-23 05:04:00,58.3,55.7,29.84,WNW,287,1.0,4.0,91,0.00,,SKC,0.00,0.00,VWS V14.00,2013-07-23 10:04:00,
2013-07-23 05:09:00,58.2,55.6,29.84,WNW,298,0.0,0.0,91,0.00,,SKC,0.00,0.00,VWS V14.00,2013-07-23 10:09:00,
2013-07-23 05:14:00,58.2,55.6,29.84,WSW,244,0.0,1.0,91,0.00,,SKC,0.00,0.00,VWS V14.00,2013-07-23 10:14:00,
2013-07-23 05:19:00,58.1,55.5,29.84,ENE,59,0.0,2.0,91,0.00,,SKC,0.00,0.00,VWS V14.00,2013-07-23 10:19:00,
2013-07-23 05:24:00,58.1,55.5,29.84,SE,124,0.0,0.0,91,0.00,,SKC,0.00,0.00,VWS V14.00,2013-07-23 10:24:00,
2013-07-23 05:29:00,58.0,55.4,29.84,WNW,293,0.0,2.0,91,0.00,,SKC,0.00,0.00,VWS V14.00,2013-07-23 10:29:00,
2013-07-23 05:34:00,58.0,55.4,29.84,NW,311,4.0,4.0,91,0.00,,SKC,0.00,0.00,VWS V14.00,2013-07-23 10:34:00,
2013-07-23 05:39:00,57.9,55.3,29.84,NNW,329,0.0,4.0,91,0.00,,SKC,0.00,0.00,VWS V14.00,2013-07-23 10:39:00,
2013-07-23 05:44:00,58.0,55.4,29.84,SSW,202,0.0,1.0,91,0.00,,SKC,0.00,0.00,VWS V14.00,2013-07-23 10:44:00,
2013-07-23 05:49:00,57.9,55.3,29.84,NW,322,1.0,3.0,91,0.00,,SKC,0.00,0.00,VWS V14.00,2013-07-23 10:49:00,
2013-07-23 05:54:00,57.9,55.3,29.84,SE,130,0.0,2.0,91,0.00,,SKC,0.00,5.00,VWS V14.00,2013-07-23 10:54:00,
2013-07-23 06:00:00,57.9,55.3,29.85,West,279,0.0,1.0,91,0.00,,SKC,0.00,5.00,VWS V14.00,2013-07-23 11:00:00,
2013-07-23 06:05:00,57.9,55.3,29.85,East,80,0.0,0.0,91,0.00,,SKC,0.00,7.00,VWS V14.00,2013-07-23 11:05:00,
2013-07-23 06:10:00,57.8,55.2,29.85,WSW,241,0.0,1.0,91,0.00,,SKC,0.00,9.00,VWS V14.00,2013-07-23 11:10:00,
2013-07-23 06:15:00,57.8,55.2,29.86,West,260,1.0,2.0,91,0.00,,SKC,0.00,11.00,VWS V14.00,2013-07-23 11:15:00,
2013-07-23 06:20:00,57.7,55.1,29.86,West,261,0.0,1.0,91,0.00,,SKC,0.00,12.00,VWS V14.00,2013-07-23 11:20:00,
2013-07-23 06:25:00,57.7,55.1,29.87,WNW,288,0.0,2.0,91,0.00,,SKC,0.00,14.00,VWS V14.00,2013-07-23 11:25:00,
2013-07-23 06:30:00,57.6,55.0,29.87,NW,325,0.0,4.0,91,0.00,,SKC,0.00,16.00,VWS V14.00,2013-07-23 11:30:00,
2013-07-23 06:35:00,57.6,55.0,29.87,NW,316,1.0,1.0,91,0.00,,SKC,0.00,16.00,VWS V14.00,2013-07-23 11:35:00,
2013-07-23 06:40:00,57.5,54.9,29.88,NW,316,0.0,1.0,91,0.00,,SKC,0.00,18.00,VWS V14.00,2013-07-23 11:40:00,
2013-07-23 06:45:00,57.5,54.9,29.88,WNW,300,0.0,3.0,91,0.00,,SKC,0.00,19.00,VWS V14.00,2013-07-23 11:45:00,
2013-07-23 06:50:00,57.5,54.9,29.89,WNW,300,3.0,4.0,91,0.00,,SKC,0.00,21.00,VWS V14.00,2013-07-23 11:50:00,
2013-07-23 06:55:00,57.5,55.2,29.89,NW,315,1.0,2.0,92,0.00,,SKC,0.00,25.00,VWS V14.00,2013-07-23 11:55:00,
2013-07-23 07:00:00,57.6,55.3,29.90,NW,324,1.0,4.0,92,0.00,,SKC,0.00,26.00,VWS V14.00,2013-07-23 12:00:00,
2013-07-23 07:05:00,57.7,55.1,29.90,NW,321,0.0,1.0,91,0.00,,SKC,0.00,28.00,VWS V14.00,2013-07-23 12:05:00,
2013-07-23 07:10:00,57.8,55.2,29.90,NW,321,0.0,1.0,91,0.00,,SKC,0.00,33.00,VWS V14.00,2013-07-23 12:10:00,
2013-07-23 07:15:00,58.0,55.4,29.90,West,275,1.0,2.0,91,0.00,,SKC,0.00,49.00,VWS V14.00,2013-07-23 12:15:00,
2013-07-23 07:20:00,58.4,55.8,29.90,West,276,0.0,2.0,91,0.00,,SKC,0.00,84.00,VWS V14.00,2013-07-23 12:20:00,
2013-07-23 07:25:00,58.6,56.0,29.90,WNW,288,0.0,1.0,91,0.00,,SKC,0.00,120.00,VWS V14.00,2013-07-23 12:25:00,
2013-07-23 07:30:00,59.1,56.2,29.90,WNW,285,0.0,1.0,90,0.00,,SKC,0.00,156.00,VWS V14.00,2013-07-23 12:30:00,
2013-07-23 07:35:00,59.5,56.3,29.90,WNW,285,0.0,0.0,89,0.00,,SKC,0.00,200.00,VWS V14.00,2013-07-23 12:35:00,
2013-07-23 07:40:00,60.0,56.4,29.90,NNE,20,0.0,3.0,88,0.00,,SKC,0.00,230.00,VWS V14.00,2013-07-23 12:40:00,
2013-07-23 07:47:00,60.7,56.8,29.90,NW,306,0.0,3.0,87,0.00,,SKC,0.00,253.00,VWS V14.00,2013-07-23 12:47:00,
2013-07-23 07:52:00,61.1,56.9,29.89,NE,36,2.0,2.0,86,0.00,,SKC,0.00,274.00,VWS V14.00,2013-07-23 12:52:00,
2013-07-23 07:57:00,61.6,57.0,29.89,WSW,254,0.0,4.0,85,0.00,,SKC,0.00,294.00,VWS V14.00,2013-07-23 12:57:00,
2013-07-23 08:02:00,62.0,57.1,29.89,West,274,0.0,1.0,84,0.00,,SKC,0.00,308.00,VWS V14.00,2013-07-23 13:02:00,
2013-07-23 08:07:00,62.5,57.3,29.89,East,84,0.0,3.0,83,0.00,,SKC,0.00,329.00,VWS V14.00,2013-07-23 13:07:00,
2013-07-23 08:12:00,62.9,57.7,29.90,NE,36,0.0,4.0,83,0.00,,SKC,0.00,343.00,VWS V14.00,2013-07-23 13:12:00,
2013-07-23 08:17:00,63.2,57.6,29.89,WNW,292,2.0,2.0,82,0.00,,SKC,0.00,348.00,VWS V14.00,2013-07-23 13:17:00,
2013-07-23 08:22:00,63.5,57.9,29.89,WNW,297,0.0,2.0,82,0.00,,SKC,0.00,371.00,VWS V14.00,2013-07-23 13:22:00,
2013-07-23 08:27:00,63.9,58.3,29.89,WNW,295,0.0,4.0,82,0.00,,SKC,0.00,385.00,VWS V14.00,2013-07-23 13:27:00,
2013-07-23 08:32:00,64.3,58.3,29.89,SSW,210,0.0,0.0,81,0.00,,SKC,0.00,383.00,VWS V14.00,2013-07-23 13:32:00,
2013-07-23 08:37:00,64.9,58.9,29.89,ESE,105,0.0,3.0,81,0.00,,SKC,0.00,422.00,VWS V14.00,2013-07-23 13:37:00,
2013-07-23 08:42:00,65.4,58.4,29.89,ENE,64,0.0,5.0,78,0.00,,SKC,0.00,443.00,VWS V14.00,2013-07-23 13:42:00,
2013-07-23 08:47:00,65.8,58.4,29.89,ENE,78,0.0,5.0,77,0.00,,SKC,0.00,473.00,VWS V14.00,2013-07-23 13:47:00,
2013-07-23 08:52:00,66.1,58.7,29.89,ENE,78,0.0,0.0,77,0.00,,SKC,0.00,489.00,VWS V14.00,2013-07-23 13:52:00,
2013-07-23 08:57:00,66.5,59.1,29.89,NNW,333,0.0,1.0,77,0.00,,SKC,0.00,520.00,VWS V14.00,2013-07-23 13:57:00,
2013-07-23 09:02:00,66.9,59.1,29.89,East,92,0.0,3.0,76,0.00,,SKC,0.00,197.00,VWS V14.00,2013-07-23 14:02:00,
2013-07-23 09:07:00,67.4,59.6,29.90,East,90,0.0,2.0,76,0.00,,SKC,0.00,297.00,VWS V14.00,2013-07-23 14:07:00,
2013-07-23 09:12:00,67.8,59.6,29.90,NE,55,1.0,3.0,75,0.00,,SKC,0.00,362.00,VWS V14.00,2013-07-23 14:12:00,
2013-07-23 09:17:00,68.1,59.5,29.90,NW,304,0.0,3.0,74,0.00,,SKC,0.00,457.00,VWS V14.00,2013-07-23 14:17:00,
2013-07-23 09:22:00,68.3,59.3,29.90,NW,309,1.0,2.0,73,0.00,,SKC,0.00,410.00,VWS V14.00,2013-07-23 14:22:00,
2013-07-23 09:27:00,68.6,59.2,29.90,NW,305,0.0,4.0,72,0.00,,SKC,0.00,269.00,VWS V14.00,2013-07-23 14:27:00,
2013-07-23 09:32:00,68.6,59.2,29.91,NW,306,0.0,1.0,72,0.00,,SKC,0.00,302.00,VWS V14.00,2013-07-23 14:32:00,
2013-07-23 09:37:00,68.5,58.7,29.90,NW,325,0.0,3.0,71,0.00,,SKC,0.00,352.00,VWS V14.00,2013-07-23 14:37:00,
2013-07-23 09:42:00,68.5,59.1,29.91,NW,325,0.0,1.0,72,0.00,,SKC,0.00,260.00,VWS V14.00,2013-07-23 14:42:00,
2013-07-23 09:47:00,68.4,59.0,29.91,NW,324,1.0,3.0,72,0.00,,SKC,0.00,438.00,VWS V14.00,2013-07-23 14:47:00,
2013-07-23 09:52:00,68.3,58.9,29.91,WNW,300,2.0,5.0,72,0.00,,SKC,0.00,220.00,VWS V14.00,2013-07-23 14:52:00,
2013-07-23 09:57:00,68.3,58.5,29.91,WNW,300,0.0,3.0,71,0.00,,SKC,0.00,677.00,VWS V14.00,2013-07-23 14:57:00,
2013-07-23 10:02:00,68.5,58.7,29.91,NW,304,1.0,2.0,71,0.00,,SKC,0.00,677.00,VWS V14.00,2013-07-23 15:02:00,
2013-07-23 10:07:00,68.8,59.0,29.91,NW,305,1.0,3.0,71,0.00,,SKC,0.00,657.00,VWS V14.00,2013-07-23 15:07:00,
2013-07-23 10:12:00,69.2,58.6,29.92,North,349,0.0,3.0,69,0.00,,SKC,0.00,668.00,VWS V14.00,2013-07-23 15:12:00,
2013-07-23 10:17:00,69.7,58.7,29.92,NW,304,1.0,6.0,68,0.00,,SKC,0.00,684.00,VWS V14.00,2013-07-23 15:17:00,
2013-07-23 10:23:00,70.2,58.7,29.92,NW,306,1.0,3.0,67,0.00,,SKC,0.00,694.00,VWS V14.00,2013-07-23 15:23:00,
2013-07-23 10:28:00,70.9,59.4,29.92,NNE,22,0.0,4.0,67,0.00,,SKC,0.00,712.00,VWS V14.00,2013-07-23 15:28:00,
2013-07-23 10:33:00,71.3,59.4,29.92,NE,41,4.0,5.0,66,0.00,,SKC,0.00,710.00,VWS V14.00,2013-07-23 15:33:00,
2013-07-23 10:38:00,71.6,59.2,29.92,WNW,290,0.0,2.0,65,0.00,,SKC,0.00,724.00,VWS V14.00,2013-07-23 15:38:00,
2013-07-23 10:43:00,71.8,59.4,29.92,NW,313,3.0,5.0,65,0.00,,SKC,0.00,758.00,VWS V14.00,2013-07-23 15:43:00,
2013-07-23 10:48:00,72.1,59.3,29.92,NW,325,1.0,3.0,64,0.00,,SKC,0.00,788.00,VWS V14.00,2013-07-23 15:48:00,
2013-07-23 10:53:00,72.3,59.5,29.92,NNW,342,2.0,5.0,64,0.00,,SKC,0.00,814.00,VWS V14.00,2013-07-23 15:53:00,
2013-07-23 10:58:00,72.6,58.8,29.92,WNW,295,1.0,3.0,62,0.00,,SKC,0.00,837.00,VWS V14.00,2013-07-23 15:58:00,
2013-07-23 11:03:00,72.5,57.8,29.92,North,351,0.0,6.0,60,0.00,,SKC,0.00,824.00,VWS V14.00,2013-07-23 16:03:00,
2013-07-23 11:08:00,72.7,60.3,29.92,NW,316,2.0,2.0,65,0.00,,SKC,0.00,814.00,VWS V14.00,2013-07-23 16:08:00,
2013-07-23 11:13:00,73.0,58.8,29.92,NNW,329,1.0,6.0,61,0.00,,SKC,0.00,877.00,VWS V14.00,2013-07-23 16:13:00,
2013-07-23 11:18:00,73.1,58.4,29.92,South,189,1.0,3.0,60,0.00,,SKC,0.00,156.00,VWS V14.00,2013-07-23 16:18:00,
2013-07-23 11:23:00,73.1,58.4,29.92,NW,315,1.0,5.0,60,0.00,,SKC,0.00,320.00,VWS V14.00,2013-07-23 16:23:00,
2013-07-23 11:28:00,72.9,58.7,29.92,WNW,301,1.0,6.0,61,0.00,,SKC,0.00,246.00,VWS V14.00,2013-07-23 16:28:00,
2013-07-23 11:33:00,72.8,59.0,29.92,NNW,328,0.0,6.0,62,0.00,,SKC,0.00,858.00,VWS V14.00,2013-07-23 16:33:00,
2013-07-23 11:38:00,73.1,58.4,29.92,ENE,78,2.0,3.0,60,0.00,,SKC,0.00,596.00,VWS V14.00,2013-07-23 16:38:00,
2013-07-23 11:43:00,73.5,58.3,29.92,SE,139,2.0,5.0,59,0.00,,SKC,0.00,207.00,VWS V14.00,2013-07-23 16:43:00,
2013-07-23 11:48:00,73.6,58.9,29.92,NNE,33,0.0,4.0,60,0.00,,SKC,0.00,870.00,VWS V14.00,2013-07-23 16:48:00,
2013-07-23 11:53:00,73.9,57.7,29.92,North,355,4.0,5.0,57,0.00,,SKC,0.00,863.00,VWS V14.00,2013-07-23 16:53:00,
2013-07-23 11:58:00,74.1,57.4,29.92,NE,39,1.0,3.0,56,0.00,,SKC,0.00,860.00,VWS V14.00,2013-07-23 16:58:00,
2013-07-23 12:03:00,74.3,58.1,29.92,NNE,30,1.0,5.0,57,0.00,,SKC,0.00,865.00,VWS V14.00,2013-07-23 17:03:00,
2013-07-23 12:08:00,74.6,57.4,29.92,NW,315,0.0,3.0,55,0.00,,SKC,0.00,868.00,VWS V14.00,2013-07-23 17:08:00,
2013-07-23 12:13:00,75.0,57.8,29.91,NE,43,2.0,4.0,55,0.00,,SKC,0.00,874.00,VWS V14.00,2013-07-23 17:13:00,
2013-07-23 12:18:00,75.3,57.5,29.92,North,9,0.0,3.0,54,0.00,,SKC,0.00,875.00,VWS V14.00,2013-07-23 17:18:00,
2013-07-23 12:23:00,75.8,59.0,29.92,North,5,1.0,5.0,56,0.00,,SKC,0.00,879.00,VWS V14.00,2013-07-23 17:23:00,
2013-07-23 12:28:00,76.0,56.6,29.91,West,265,3.0,3.0,51,0.00,,SKC,0.00,888.00,VWS V14.00,2013-07-23 17:28:00,
2013-07-23 12:33:00,76.3,59.0,29.92,NW,322,0.0,6.0,55,0.00,,SKC,0.00,889.00,VWS V14.00,2013-07-23 17:33:00,
2013-07-23 12:38:00,76.6,57.1,29.91,ENE,71,1.0,7.0,51,0.00,,SKC,0.00,891.00,VWS V14.00,2013-07-23 17:38:00,
2013-07-23 12:43:00,76.6,57.7,29.92,WNW,299,2.0,5.0,52,0.00,,SKC,0.00,893.00,VWS V14.00,2013-07-23 17:43:00,
2013-07-23 12:48:00,76.6,57.7,29.92,NW,319,3.0,7.0,52,0.00,,SKC,0.00,905.00,VWS V14.00,2013-07-23 17:48:00,
2013-07-23 12:53:00,76.4,58.0,29.92,NE,54,1.0,4.0,53,0.00,,SKC,0.00,935.00,VWS V14.00,2013-07-23 17:53:00,
2013-07-23 12:58:00,76.4,58.5,29.91,NNW,344,0.0,6.0,54,0.00,,SKC,0.00,907.00,VWS V14.00,2013-07-23 17:58:00,
2013-07-23 13:03:00,76.6,57.7,29.91,NE,46,2.0,4.0,52,0.00,,SKC,0.00,900.00,VWS V14.00,2013-07-23 18:03:00,
2013-07-23 13:09:00,76.9,58.5,29.91,North,11,3.0,3.0,53,0.00,,SKC,0.00,905.00,VWS V14.00,2013-07-23 18:09:00,
2013-07-23 13:14:00,77.1,58.1,29.91,ESE,114,0.0,3.0,52,0.00,,SKC,0.00,911.00,VWS V14.00,2013-07-23 18:14:00,
2013-07-23 13:21:00,77.5,57.4,29.91,NE,42,0.0,3.0,50,0.00,,SKC,0.00,904.00,VWS V14.00,2013-07-23 18:21:00,
2013-07-23 13:26:00,77.5,58.5,29.90,NNW,327,2.0,3.0,52,0.00,,SKC,0.00,904.00,VWS V14.00,2013-07-23 18:26:00,
2013-07-23 13:31:00,77.6,58.6,29.90,WNW,300,3.0,3.0,52,0.00,,SKC,0.00,905.00,VWS V14.00,2013-07-23 18:31:00,
2013-07-23 13:36:00,78.1,58.5,29.91,WNW,294,1.0,4.0,51,0.00,,SKC,0.00,905.00,VWS V14.00,2013-07-23 18:36:00,
2013-07-23 13:41:00,78.1,58.5,29.91,NNE,27,1.0,6.0,51,0.00,,SKC,0.00,902.00,VWS V14.00,2013-07-23 18:41:00,
2013-07-23 13:46:00,78.0,57.3,29.91,NNW,342,2.0,5.0,49,0.00,,SKC,0.00,900.00,VWS V14.00,2013-07-23 18:46:00,
2013-07-23 13:52:00,78.1,57.4,29.91,ESE,113,2.0,4.0,49,0.00,,SKC,0.00,904.00,VWS V14.00,2013-07-23 18:52:00,
2013-07-23 13:57:00,78.0,57.3,29.91,NW,307,0.0,7.0,49,0.00,,SKC,0.00,902.00,VWS V14.00,2013-07-23 18:57:00,
2013-07-23 14:02:00,78.3,58.2,29.91,WNW,300,0.0,3.0,50,0.00,,SKC,0.00,898.00,VWS V14.00,2013-07-23 19:02:00,
2013-07-23 14:07:00,78.6,57.9,29.91,WSW,252,1.0,4.0,49,0.00,,SKC,0.00,898.00,VWS V14.00,2013-07-23 19:07:00,
2013-07-23 14:12:00,78.7,57.4,29.91,NW,307,2.0,2.0,48,0.00,,SKC,0.00,895.00,VWS V14.00,2013-07-23 19:12:00,
2013-07-23 14:17:00,78.7,57.4,29.91,NW,323,3.0,3.0,48,0.00,,SKC,0.00,888.00,VWS V14.00,2013-07-23 19:17:00,
2013-07-23 14:22:00,78.7,59.1,29.91,North,355,0.0,5.0,51,0.00,,SKC,0.00,881.00,VWS V14.00,2013-07-23 19:22:00,
2013-07-23 14:28:00,78.7,58.5,29.91,ESE,120,2.0,4.0,50,0.00,,SKC,0.00,875.00,VWS V14.00,2013-07-23 19:28:00,
2013-07-23 14:33:00,79.3,58.5,29.91,NNW,331,0.0,3.0,49,0.00,,SKC,0.00,875.00,VWS V14.00,2013-07-23 19:33:00,
2013-07-23 14:39:00,79.6,57.6,29.91,ESE,115,1.0,3.0,47,0.00,,SKC,0.00,870.00,VWS V14.00,2013-07-23 19:39:00,
2013-07-23 14:45:00,79.4,58.6,29.91,West,267,4.0,4.0,49,0.00,,SKC,0.00,870.00,VWS V14.00,2013-07-23 19:45:00,
2013-07-23 14:51:00,79.4,58.6,29.91,WNW,302,2.0,6.0,49,0.00,,SKC,0.00,860.00,VWS V14.00,2013-07-23 19:51:00,
2013-07-23 14:56:00,79.5,59.2,29.91,ENE,63,0.0,3.0,50,0.00,,SKC,0.00,860.00,VWS V14.00,2013-07-23 19:56:00,
2013-07-23 15:01:00,79.8,57.8,29.91,NNE,28,0.0,3.0,47,0.00,,SKC,0.00,846.00,VWS V14.00,2013-07-23 20:01:00,
2013-07-23 15:07:00,80.0,57.4,29.90,NNE,26,0.0,5.0,46,0.00,,SKC,0.00,840.00,VWS V14.00,2013-07-23 20:07:00,
2013-07-23 15:13:00,80.0,58.0,29.90,NNW,346,1.0,1.0,47,0.00,,SKC,0.00,833.00,VWS V14.00,2013-07-23 20:13:00,
2013-07-23 15:18:00,80.3,58.2,29.90,WNW,303,0.0,1.0,47,0.00,,SKC,0.00,823.00,VWS V14.00,2013-07-23 20:18:00,
2013-07-23 15:23:00,80.4,57.8,29.90,NW,314,2.0,2.0,46,0.00,,SKC,0.00,814.00,VWS V14.00,2013-07-23 20:23:00,
2013-07-23 15:28:00,79.9,56.7,29.90,WNW,291,3.0,3.0,45,0.00,,SKC,0.00,810.00,VWS V14.00,2013-07-23 20:28:00,
2013-07-23 15:34:00,79.3,57.9,29.90,NW,313,1.0,2.0,48,0.00,,SKC,0.00,802.00,VWS V14.00,2013-07-23 20:34:00,
2013-07-23 15:39:00,79.5,59.2,29.90,ESE,113,2.0,2.0,50,0.00,,SKC,0.00,819.00,VWS V14.00,2013-07-23 20:39:00,
2013-07-23 15:44:00,79.9,57.3,29.90,NW,311,2.0,2.0,46,0.00,,SKC,0.00,838.00,VWS V14.00,2013-07-23 20:44:00,
2013-07-23 15:49:00,80.1,56.2,29.90,NNE,32,0.0,0.0,44,0.00,,SKC,0.00,171.00,VWS V14.00,2013-07-23 20:49:00,
2013-07-23 15:54:00,80.1,56.2,29.90,ENE,74,0.0,3.0,44,0.00,,SKC,0.00,819.00,VWS V14.00,2013-07-23 20:54:00,
2013-07-23 15:59:00,79.1,56.6,29.90,ENE,62,2.0,3.0,46,0.00,,SKC,0.00,840.00,VWS V14.00,2013-07-23 20:59:00,
2013-07-23 16:05:00,78.5,56.0,29.90,NE,36,0.0,1.0,46,0.00,,SKC,0.00,202.00,VWS V14.00,2013-07-23 21:05:00,
2013-07-23 16:10:00,78.3,57.6,29.90,NW,306,0.0,4.0,49,0.00,,SKC,0.00,257.00,VWS V14.00,2013-07-23 21:10:00,
2013-07-23 16:15:00,78.2,58.6,29.90,WNW,296,2.0,2.0,51,0.00,,SKC,0.00,225.00,VWS V14.00,2013-07-23 21:15:00,
2013-07-23 16:20:00,78.2,57.5,29.90,NE,34,1.0,2.0,49,0.00,,SKC,0.00,789.00,VWS V14.00,2013-07-23 21:20:00,
2013-07-23 16:25:00,78.4,57.7,29.90,NW,305,1.0,3.0,49,0.00,,SKC,0.00,763.00,VWS V14.00,2013-07-23 21:25:00,
2013-07-23 16:30:00,78.7,57.4,29.90,NW,324,0.0,3.0,48,0.00,,SKC,0.00,800.00,VWS V14.00,2013-07-23 21:30:00,
2013-07-23 16:35:00,78.7,56.2,29.90,ENE,61,0.0,4.0,46,0.00,,SKC,0.00,359.00,VWS V14.00,2013-07-23 21:35:00,
2013-07-23 16:40:00,78.4,57.7,29.90,NW,312,2.0,3.0,49,0.00,,SKC,0.00,234.00,VWS V14.00,2013-07-23 21:40:00,
2013-07-23 16:45:00,78.2,56.9,29.90,WNW,284,4.0,5.0,48,0.00,,SKC,0.00,747.00,VWS V14.00,2013-07-23 21:45:00,
2013-07-23 16:50:00,78.1,58.0,29.90,East,100,0.0,3.0,50,0.00,,SKC,0.00,137.00,VWS V14.00,2013-07-23 21:50:00,
2013-07-23 16:55:00,77.9,57.8,29.90,WSW,247,0.0,1.0,50,0.00,,SKC,0.00,202.00,VWS V14.00,2013-07-23 21:55:00,
2013-07-23 17:00:00,77.5,58.0,29.90,NW,312,0.0,2.0,51,0.00,,SKC,0.00,751.00,VWS V14.00,2013-07-23 22:00:00,
2013-07-23 17:07:00,77.5,57.4,29.90,WNW,297,1.0,3.0,50,0.00,,SKC,0.00,714.00,VWS V14.00,2013-07-23 22:07:00,
2013-07-23 17:12:00,77.6,57.5,29.90,NNE,26,0.0,2.0,50,0.00,,SKC,0.00,213.00,VWS V14.00,2013-07-23 22:12:00,
2013-07-23 17:19:00,77.3,57.8,29.90,East,101,3.0,3.0,51,0.00,,SKC,0.00,186.00,VWS V14.00,2013-07-23 22:19:00,
2013-07-23 17:26:00,76.8,56.8,29.90,NNE,33,1.0,3.0,50,0.00,,SKC,0.00,647.00,VWS V14.00,2013-07-23 22:26:00,
2013-07-23 17:31:00,76.9,58.0,29.90,West,266,0.0,1.0,52,0.00,,SKC,0.00,306.00,VWS V14.00,2013-07-23 22:31:00,
2013-07-23 17:36:00,76.8,57.3,29.90,ENE,71,0.0,5.0,51,0.00,,SKC,0.00,183.00,VWS V14.00,2013-07-23 22:36:00,
2013-07-23 17:41:00,76.7,57.2,29.90,WNW,294,0.0,2.0,51,0.00,,SKC,0.00,178.00,VWS V14.00,2013-07-23 22:41:00,
2013-07-23 17:47:00,76.6,58.2,29.90,NE,34,1.0,2.0,53,0.00,,SKC,0.00,202.00,VWS V14.00,2013-07-23 22:47:00,
2013-07-23 17:52:00,76.3,58.5,29.90,NE,38,0.0,2.0,54,0.00,,SKC,0.00,183.00,VWS V14.00,2013-07-23 22:52:00,
2013-07-23 17:57:00,76.0,57.7,29.90,NNE,30,2.0,2.0,53,0.00,,SKC,0.00,141.00,VWS V14.00,2013-07-23 22:57:00,
2013-07-23 18:02:00,75.8,57.5,29.90,East,82,0.0,2.0,53,0.00,,SKC,0.00,142.00,VWS V14.00,2013-07-23 23:02:00,
2013-07-23 18:08:00,75.5,57.7,29.90,ENE,77,2.0,3.0,54,0.00,,SKC,0.00,134.00,VWS V14.00,2013-07-23 23:08:00,
2013-07-23 18:13:00,75.1,57.3,29.90,ENE,77,0.0,2.0,54,0.00,,SKC,0.00,417.00,VWS V14.00,2013-07-23 23:13:00,
2013-07-23 18:18:00,75.1,56.8,29.90,NNE,32,1.0,3.0,53,0.00,,SKC,0.00,454.00,VWS V14.00,2013-07-23 23:18:00,
2013-07-23 18:24:00,75.2,57.4,29.90,East,92,1.0,2.0,54,0.00,,SKC,0.00,125.00,VWS V14.00,2013-07-23 23:24:00,
2013-07-23 18:30:00,75.2,57.9,29.90,East,92,0.0,1.0,55,0.00,,SKC,0.00,125.00,VWS V14.00,2013-07-23 23:30:00,
2013-07-23 18:35:00,75.1,57.8,29.90,ESE,119,1.0,2.0,55,0.00,,SKC,0.00,123.00,VWS V14.00,2013-07-23 23:35:00,
2013-07-23 18:40:00,75.0,57.2,29.90,NNE,15,0.0,1.0,54,0.00,,SKC,0.00,181.00,VWS V14.00,2013-07-23 23:40:00,
2013-07-23 18:45:00,75.0,57.2,29.90,NNE,24,1.0,2.0,54,0.00,,SKC,0.00,98.00,VWS V14.00,2013-07-23 23:45:00,
2013-07-23 18:50:00,74.7,58.0,29.89,NNE,24,0.0,2.0,56,0.00,,SKC,0.00,272.00,VWS V14.00,2013-07-23 23:50:00,
2013-07-23 18:55:00,74.5,57.3,29.89,West,279,1.0,2.0,55,0.00,,SKC,0.00,218.00,VWS V14.00,2013-07-23 23:55:00,
2013-07-23 19:00:00,74.3,57.6,29.89,West,279,0.0,1.0,56,0.00,,SKC,0.00,227.00,VWS V14.00,2013-07-24 00:00:00,
2013-07-23 19:05:00,74.3,56.6,29.89,NNW,344,0.0,2.0,54,0.00,,SKC,0.00,195.00,VWS V14.00,2013-07-24 00:05:00,
2013-07-23 19:11:00,74.2,57.0,29.89,ESE,106,0.0,3.0,55,0.00,,SKC,0.00,204.00,VWS V14.00,2013-07-24 00:11:00,
2013-07-23 19:16:00,74.0,57.3,29.89,ENE,72,0.0,1.0,56,0.00,,SKC,0.00,176.00,VWS V14.00,2013-07-24 00:16:00,
2013-07-23 19:21:00,73.9,57.2,29.89,East,93,1.0,3.0,56,0.00,,SKC,0.00,156.00,VWS V14.00,2013-07-24 00:21:00,
2013-07-23 19:26:00,73.6,56.0,29.89,East,87,0.0,2.0,54,0.00,,SKC,0.00,165.00,VWS V14.00,2013-07-24 00:26:00,
2013-07-23 19:31:00,73.5,57.8,29.89,East,87,0.0,2.0,58,0.00,,SKC,0.00,183.00,VWS V14.00,2013-07-24 00:31:00,
2013-07-23 19:36:00,73.4,57.3,29.90,East,87,0.0,2.0,57,0.00,,SKC,0.00,169.00,VWS V14.00,2013-07-24 00:36:00,
2013-07-23 19:43:00,73.3,57.2,29.89,East,87,0.0,1.0,57,0.00,,SKC,0.00,142.00,VWS V14.00,2013-07-24 00:43:00,
2013-07-23 19:48:00,73.3,57.2,29.90,East,87,0.0,1.0,57,0.00,,SKC,0.00,127.00,VWS V14.00,2013-07-24 00:48:00,
2013-07-23 19:53:00,73.3,57.2,29.90,East,87,0.0,1.0,57,0.00,,SKC,0.00,107.00,VWS V14.00,2013-07-24 00:53:00,
2013-07-23 19:58:00,73.2,57.1,29.90,East,87,0.0,2.0,57,0.00,,SKC,0.00,40.00,VWS V14.00,2013-07-24 00:58:00,
2013-07-23 20:03:00,72.9,56.8,29.90,East,87,0.0,3.0,57,0.00,,SKC,0.00,40.00,VWS V14.00,2013-07-24 01:03:00,
2013-07-23 20:08:00,72.7,56.6,29.90,East,87,0.0,1.0,57,0.00,,SKC,0.00,30.00,VWS V14.00,2013-07-24 01:08:00,
2013-07-23 20:13:00,72.3,56.7,29.90,East,87,0.0,1.0,58,0.00,,SKC,0.00,26.00,VWS V14.00,2013-07-24 01:13:00,
2013-07-23 20:18:00,72.0,56.0,29.90,East,87,0.0,1.0,57,0.00,,SKC,0.00,23.00,VWS V14.00,2013-07-24 01:18:00,
2013-07-23 20:23:00,71.7,56.2,29.90,East,87,0.0,0.0,58,0.00,,SKC,0.00,19.00,VWS V14.00,2013-07-24 01:23:00,
2013-07-23 20:29:00,71.4,56.8,29.90,East,87,0.0,0.0,60,0.00,,SKC,0.00,19.00,VWS V14.00,2013-07-24 01:29:00,
2013-07-23 20:34:00,70.9,56.3,29.90,East,87,0.0,0.0,60,0.00,,SKC,0.00,16.00,VWS V14.00,2013-07-24 01:34:00,
2013-07-23 20:39:00,70.4,56.8,29.90,East,87,0.0,0.0,62,0.00,,SKC,0.00,14.00,VWS V14.00,2013-07-24 01:39:00,
2013-07-23 20:46:00,69.7,57.0,29.90,East,87,0.0,0.0,64,0.00,,SKC,0.00,11.00,VWS V14.00,2013-07-24 01:46:00,
2013-07-23 20:51:00,68.9,57.1,29.90,East,87,0.0,1.0,66,0.00,,SKC,0.00,9.00,VWS V14.00,2013-07-24 01:51:00,
2013-07-23 20:56:00,68.2,56.4,29.91,East,87,0.0,0.0,66,0.00,,SKC,0.00,5.00,VWS V14.00,2013-07-24 01:56:00,
2013-07-23 21:01:00,67.8,55.6,29.90,East,87,0.0,0.0,65,0.00,,SKC,0.00,0.00,VWS V14.00,2013-07-24 02:01:00,
2013-07-23 21:08:00,67.2,55.0,29.90,East,87,0.0,0.0,65,0.00,,SKC,0.00,0.00,VWS V14.00,2013-07-24 02:08:00,
2013-07-23 21:13:00,66.9,54.8,29.91,East,87,0.0,0.0,65,0.00,,SKC,0.00,0.00,VWS V14.00,2013-07-24 02:13:00,
2013-07-23 21:18:00,66.6,54.9,29.91,East,87,0.0,0.0,66,0.00,,SKC,0.00,0.00,VWS V14.00,2013-07-24 02:18:00,
2013-07-23 21:23:00,66.3,55.0,29.91,East,87,0.0,0.0,67,0.00,,SKC,0.00,0.00,VWS V14.00,2013-07-24 02:23:00,
2013-07-23 21:28:00,66.1,55.2,29.91,East,87,0.0,0.0,68,0.00,,SKC,0.00,0.00,VWS V14.00,2013-07-24 02:28:00,
2013-07-23 21:33:00,65.9,55.5,29.91,East,87,0.0,0.0,69,0.00,,SKC,0.00,0.00,VWS V14.00,2013-07-24 02:33:00,
2013-07-23 21:40:00,65.7,56.4,29.92,East,87,0.0,0.0,72,0.00,,SKC,0.00,0.00,VWS V14.00,2013-07-24 02:40:00,
2013-07-23 21:45:00,65.6,57.5,29.92,East,87,0.0,0.0,75,0.00,,SKC,0.00,0.00,VWS V14.00,2013-07-24 02:45:00,
2013-07-23 21:50:00,65.4,57.7,29.92,East,87,0.0,0.0,76,0.00,,SKC,0.00,0.00,VWS V14.00,2013-07-24 02:50:00,
2013-07-23 21:55:00,65.2,57.5,29.92,East,87,0.0,0.0,76,0.00,,SKC,0.00,0.00,VWS V14.00,2013-07-24 02:55:00,
2013-07-23 22:00:00,65.0,58.0,29.93,East,87,0.0,0.0,78,0.00,,SKC,0.00,0.00,VWS V14.00,2013-07-24 03:00:00,
2013-07-23 22:06:00,64.6,56.9,29.93,East,87,2.0,2.0,76,0.00,,SKC,0.00,0.00,VWS V14.00,2013-07-24 03:06:00,
2013-07-23 22:11:00,63.9,56.2,29.93,East,87,0.0,0.0,76,0.00,,SKC,0.00,0.00,VWS V14.00,2013-07-24 03:11:00,
2013-07-23 22:16:00,63.4,56.1,29.93,East,87,0.0,0.0,77,0.00,,SKC,0.00,0.00,VWS V14.00,2013-07-24 03:16:00,
2013-07-23 22:21:00,63.2,55.9,29.93,East,87,0.0,0.0,77,0.00,,SKC,0.00,0.00,VWS V14.00,2013-07-24 03:21:00,
2013-07-23 22:28:00,62.7,56.1,29.93,East,87,0.0,0.0,79,0.00,,SKC,0.00,0.00,VWS V14.00,2013-07-24 03:28:00,
2013-07-23 22:33:00,62.3,56.1,29.93,East,87,0.0,0.0,80,0.00,,SKC,0.00,0.00,VWS V14.00,2013-07-24 03:33:00,
2013-07-23 22:38:00,62.0,55.8,29.93,East,87,0.0,0.0,80,0.00,,SKC,0.00,0.00,VWS V14.00,2013-07-24 03:38:00,
2013-07-23 22:43:00,61.8,55.9,29.93,East,87,0.0,0.0,81,0.00,,SKC,0.00,0.00,VWS V14.00,2013-07-24 03:43:00,
2013-07-23 22:48:00,61.6,56.1,29.93,East,87,0.0,0.0,82,0.00,,SKC,0.00,0.00,VWS V14.00,2013-07-24 03:48:00,
2013-07-23 22:53:00,61.4,55.9,29.93,East,87,0.0,0.0,82,0.00,,SKC,0.00,0.00,VWS V14.00,2013-07-24 03:53:00,
2013-07-23 22:58:00,61.3,55.8,29.93,East,87,0.0,0.0,82,0.00,,SKC,0.00,0.00,VWS V14.00,2013-07-24 03:58:00,
2013-07-23 23:01:00,61.3,55.8,29.92,East,87,0.0,0.0,82,0.00,,SKC,0.00,0.00,VWS V14.00,2013-07-24 04:01:00,
2013-07-23 23:03:00,61.2,55.7,29.93,East,87,0.0,0.0,82,0.00,,SKC,0.00,0.00,VWS V14.00,2013-07-24 04:03:00,
2013-07-23 23:06:00,61.1,55.6,29.93,East,87,0.0,0.0,82,0.00,,SKC,0.00,0.00,VWS V14.00,2013-07-24 04:06:00,
2013-07-23 23:08:00,61.1,55.6,29.93,East,87,0.0,0.0,82,0.00,,SKC,0.00,0.00,VWS V14.00,2013-07-24 04:08:00,
2013-07-23 23:13:00,60.9,55.4,29.92,East,87,0.0,0.0,82,0.00,,SKC,0.00,0.00,VWS V14.00,2013-07-24 04:13:00,
2013-07-23 23:20:00,60.7,55.2,29.93,East,87,0.0,0.0,82,0.00,,SKC,0.00,0.00,VWS V14.00,2013-07-24 04:20:00,
2013-07-23 23:25:00,60.6,54.8,29.93,East,87,0.0,0.0,81,0.00,,SKC,0.00,0.00,VWS V14.00,2013-07-24 04:25:00,
2013-07-23 23:30:00,60.5,55.0,29.92,East,87,0.0,0.0,82,0.00,,SKC,0.00,0.00,VWS V14.00,2013-07-24 04:30:00,
2013-07-23 23:35:00,60.3,54.5,29.93,East,87,0.0,0.0,81,0.00,,SKC,0.00,0.00,VWS V14.00,2013-07-24 04:35:00,
2013-07-23 23:40:00,60.3,54.8,29.93,East,87,0.0,0.0,82,0.00,,SKC,0.00,0.00,VWS V14.00,2013-07-24 04:40:00,
2013-07-23 23:45:00,60.1,54.6,29.93,East,87,0.0,0.0,82,0.00,,SKC,0.00,0.00,VWS V14.00,2013-07-24 04:45:00,
2013-07-23 23:50:00,60.0,54.5,29.93,East,87,0.0,0.0,82,0.00,,SKC,0.00,0.00,VWS V14.00,2013-07-24 04:50:00,
2013-07-23 23:55:00,60.0,54.8,29.93,East,87,0.0,0.0,83,0.00,,SKC,0.00,0.00,VWS V14.00,2013-07-24 04:55:00,